Вернуться в каталог

STARLINK-36751

АктивенСвязьSSO
NORAD 67729·PAYLOAD·🇺🇸 United States

Запущен Feb 11, 2026 с Vandenberg Space Force Base

Loading…

Ближайшие Пролёты (ближайшие 24 часа)

TLE

СвежийSource: CelesTrak SupGP

Эпоха: Sep 14, 2026, 23:26 UTC

1 67729C 26026J   26257.97687500  .00022540  00000+0  69979-3 0  2573
2 67729  97.2845 309.8724 0001098  85.9398 255.0938 15.33423505    15

Отслеживайте STARLINK-36751 в реальном времени с AllMySat

Download on the App Store